Location: Cluj-Napoca
(46.7712°N, 23.6236°E)
Time: 11:56:41
(UTC+03:00)

ISS - Pass Details

Date: 14 May 2021
Orbit: 417 x 422 km, 51.6° (Epoch: 15 May)

Event Time Altitude Azimuth Distance (km) Brightness Sun altitude
Exits shadow 00:45:44 18° 54° (NE) 1,101 -1.4 -24.1°
Drops below altitude 10° 00:46:48 10° 60° (ENE) 1,505 -0.7 -24.1°
Sets 00:48:57 0° 66° (ENE) 2,371 0.3 -24.2°
